| time (UTC) | temp F | wind direction | speed MPH | gust MPH | rain 1hr in | rain 24hr in | rain mn in | humidity % | barometer mb |
| 20260504151045 | 74 | 248 | 0.0 | 0.0 | 9.99 | 9.99 | 0.00 | 39 | 1004.3 |
| 20260504150545 | 74 | 248 | 0.0 | 0.0 | 9.99 | 9.99 | 0.00 | 39 | 1004.5 |
| 20260504130703 | 77 | 248 | 0.0 | 0.0 | 0.00 | 9.99 | 0.00 | 39 | 1004.7 |
| 20260504130544 | 77 | 248 | 0.0 | 0.0 | 0.00 | 9.99 | 0.00 | 39 | 1004.7 |
| 20260504110633 | 77 | 248 | 44.0 | 44.0 | 9.99 | 9.99 | 0.00 | 43 | 1004.7 |
| 20260504110546 | 77 | 248 | 44.0 | 44.0 | 9.99 | 9.99 | 0.00 | 43 | 1004.7 |
| 20260504100547 | 73 | 248 | 0.0 | 0.0 | 0.00 | 9.99 | 0.00 | 50 | 1005.6 |
| 20260504081546 | 67 | 248 | 0.0 | 0.0 | 0.00 | 0.32 | 0.00 | 60 | 1006.8 |
| 20260504080546 | 66 | 248 | 0.0 | 0.0 | 0.00 | 0.32 | 0.00 | 60 | 1006.7 |
| 20260504050546 | 53 | 270 | 0.0 | 0.0 | 0.00 | 9.99 | 0.00 | 80 | 1006.8 |
| 20260504045546 | 51 | 270 | 0.0 | 0.0 | 0.00 | 9.99 | 0.00 | 81 | 1006.6 |
| 20260504045046 | 49 | 248 | 0.0 | 0.0 | 0.00 | 9.99 | 0.00 | 81 | 1006.6 |
| 20260504044546 | 47 | 248 | 0.0 | 0.0 | 0.00 | 9.99 | 0.00 | 80 | 1006.6 |
| 20260504044046 | 46 | 248 | 0.0 | 0.0 | 0.00 | 9.99 | 0.00 | 80 | 1006.7 |
| 20260504043548 | 46 | 248 | 0.0 | 0.0 | 0.00 | 9.99 | 0.00 | 80 | 1006.5 |
| 20260504043046 | 45 | 248 | 0.0 | 0.0 | 0.00 | 9.99 | 0.00 | 80 | 1006.6 |
| 20260504042546 | 45 | 248 | 0.0 | 0.0 | 0.00 | 9.99 | 0.00 | 79 | 1006.6 |
| 20260504042046 | 45 | 248 | 0.0 | 0.0 | 0.00 | 9.99 | 0.00 | 79 | 1006.6 |
| 20260504041547 | 44 | 248 | 0.0 | 0.0 | 0.00 | 9.99 | 0.00 | 79 | 1006.5 |
| 20260504041046 | 44 | 248 | 0.0 | 0.0 | 0.00 | 9.99 | 0.00 | 79 | 1006.6 |
| 20260504040548 | 44 | 248 | 0.0 | 0.0 | 0.00 | 9.99 | 0.00 | 79 | 1006.4 |
| 20260504040047 | 44 | 248 | 0.0 | 0.0 | 0.00 | 9.99 | 0.00 | 79 | 1006.6 |
| 20260504035546 | 44 | 248 | 0.0 | 0.0 | 0.00 | 9.99 | 0.00 | 79 | 1006.5 |
| 20260504034547 | 44 | 248 | 0.0 | 0.0 | 0.00 | 9.99 | 0.00 | 78 | 1006.5 |
| 20260504034047 | 45 | 248 | 0.0 | 0.0 | 0.00 | 9.99 | 0.00 | 78 | 1006.4 |
| 20260504033558 | 45 | 248 | 0.0 | 0.0 | 0.00 | 9.99 | 0.00 | 78 | 1006.5 |
| 20260504033047 | 45 | 248 | 0.0 | 0.0 | 0.00 | 9.99 | 0.00 | 78 | 1006.4 |
| 20260504032546 | 45 | 248 | 0.0 | 0.0 | 0.00 | 9.99 | 0.00 | 78 | 1006.5 |
| 20260504032047 | 45 | 248 | 0.0 | 0.0 | 0.00 | 9.99 | 0.00 | 77 | 1006.5 |
| 20260504031546 | 45 | 248 | 0.0 | 0.0 | 0.00 | 9.99 | 0.00 | 77 | 1006.6 |
| 20260504031046 | 45 | 248 | 0.0 | 0.0 | 0.00 | 9.99 | 0.00 | 77 | 1006.5 |
| 20260504030546 | 45 | 248 | 0.0 | 0.0 | 0.00 | 9.99 | 0.00 | 77 | 1006.4 |
| 20260504030046 | 45 | 248 | 0.0 | 0.0 | 0.00 | 9.99 | 0.00 | 77 | 1006.5 |
| 20260504025546 | 45 | 248 | 0.0 | 0.0 | 0.00 | 9.99 | 0.00 | 77 | 1006.3 |
| 20260504025046 | 45 | 248 | 0.0 | 0.0 | 0.00 | 9.99 | 0.00 | 77 | 1006.4 |
| 20260504024546 | 45 | 248 | 0.0 | 0.0 | 0.00 | 9.99 | 0.00 | 76 | 1006.5 |
| 20260504024047 | 46 | 248 | 0.0 | 0.0 | 0.00 | 9.99 | 0.00 | 76 | 1006.6 |
| 20260504023546 | 46 | 248 | 0.0 | 0.0 | 0.00 | 9.99 | 0.00 | 76 | 1006.5 |
| 20260504023046 | 46 | 248 | 0.0 | 0.0 | 0.00 | 9.99 | 0.00 | 76 | 1006.5 |
| 20260504022546 | 46 | 248 | 0.0 | 0.0 | 0.00 | 9.99 | 0.00 | 76 | 1006.5 |
| 20260504022049 | 46 | 248 | 0.0 | 0.0 | 0.00 | 9.99 | 0.00 | 76 | 1006.5 |
| 20260504021546 | 46 | 248 | 0.0 | 0.0 | 0.00 | 9.99 | 0.00 | 76 | 1006.4 |
| 20260504021046 | 46 | 248 | 0.0 | 0.0 | 0.00 | 9.99 | 0.00 | 75 | 1006.6 |
| 20260504020546 | 46 | 248 | 0.0 | 0.0 | 0.00 | 9.99 | 0.00 | 75 | 1006.7 |
| 20260504020046 | 46 | 248 | 0.0 | 0.0 | 0.00 | 9.99 | 0.00 | 75 | 1006.5 |
| 20260504015046 | 47 | 248 | 0.0 | 0.0 | 0.00 | 9.99 | 0.00 | 74 | 1006.6 |
| 20260504014546 | 47 | 248 | 0.0 | 0.0 | 0.00 | 9.99 | 0.00 | 74 | 1006.6 |
| 20260504014046 | 47 | 248 | 0.0 | 0.0 | 0.00 | 9.99 | 0.00 | 74 | 1006.6 |
| 20260504013546 | 47 | 248 | 0.0 | 0.0 | 0.00 | 9.99 | 0.00 | 74 | 1006.5 |
| 20260504013046 | 47 | 248 | 0.0 | 0.0 | 0.00 | 9.99 | 0.00 | 74 | 1006.5 |
| 20260504012552 | 47 | 248 | 0.0 | 0.0 | 0.00 | 9.99 | 0.00 | 74 | 1006.5 |
| 20260504012046 | 47 | 248 | 0.0 | 0.0 | 0.00 | 9.99 | 0.00 | 74 | 1006.6 |
| 20260504011546 | 47 | 248 | 0.0 | 0.0 | 0.00 | 9.99 | 0.00 | 74 | 1006.5 |
| 20260504011046 | 47 | 359 | 0.0 | 0.0 | 0.00 | 9.99 | 0.00 | 74 | 1006.4 |
| 20260504010546 | 48 | 359 | 0.0 | 0.0 | 0.00 | 9.99 | 0.00 | 74 | 1006.6 |
| 20260504010046 | 48 | 248 | 0.0 | 0.0 | 0.00 | 9.99 | 0.00 | 73 | 1006.5 |
| 20260504005546 | 48 | 248 | 0.0 | 0.0 | 0.00 | 9.99 | 0.00 | 72 | 1006.5 |
| 20260504004046 | 48 | 248 | 0.0 | 0.0 | 0.00 | 9.99 | 0.00 | 72 | 1006.5 |
| 20260504003548 | 48 | 248 | 0.0 | 0.0 | 0.00 | 9.99 | 0.00 | 72 | 1006.5 |
| 20260504002548 | 48 | 248 | 0.0 | 0.0 | 0.00 | 9.99 | 0.00 | 71 | 1006.4 |
| 20260504001549 | 48 | 248 | 0.0 | 0.0 | 0.00 | 9.99 | 0.00 | 71 | 1006.4 |
| 20260504001047 | 48 | 248 | 0.0 | 0.0 | 0.00 | 9.99 | 0.00 | 71 | 1006.3 |
| 20260503235547 | 48 | 248 | 0.0 | 0.0 | 0.00 | 9.99 | 0.00 | 71 | 1006.4 |
| 20260503235051 | 48 | 248 | 0.0 | 0.0 | 0.00 | 9.99 | 0.00 | 71 | 1006.4 |
| 20260503234550 | 48 | 248 | 0.0 | 0.0 | 0.00 | 9.99 | 0.00 | 71 | 1006.5 |
| 20260503234047 | 48 | 248 | 0.0 | 0.0 | 0.00 | 9.99 | 0.00 | 69 | 1006.6 |
| 20260503233549 | 48 | 248 | 0.0 | 0.0 | 0.00 | 9.99 | 0.00 | 69 | 1006.6 |
| 20260503233048 | 49 | 248 | 0.0 | 0.0 | 0.00 | 9.99 | 0.00 | 69 | 1006.7 |
| 20260503232047 | 49 | 248 | 0.0 | 0.0 | 0.00 | 9.99 | 0.00 | 68 | 1006.5 |
| 20260503231547 | 49 | 248 | 0.0 | 0.0 | 0.00 | 9.99 | 0.00 | 68 | 1006.6 |
| 20260503231047 | 49 | 248 | 0.0 | 0.0 | 0.00 | 9.99 | 0.00 | 68 | 1006.8 |
| 20260503230548 | 49 | 248 | 0.0 | 0.0 | 0.00 | 9.99 | 0.00 | 68 | 1006.8 |
| 20260503230047 | 49 | 248 | 0.0 | 0.0 | 0.00 | 9.99 | 0.00 | 68 | 1006.7 |
| 20260503225547 | 49 | 248 | 0.0 | 0.0 | 0.00 | 9.99 | 0.00 | 68 | 1006.5 |
| 20260503225047 | 49 | 248 | 0.0 | 0.0 | 0.00 | 9.99 | 0.00 | 67 | 1006.7 |
| 20260503224547 | 49 | 248 | 0.0 | 0.0 | 0.00 | 9.99 | 0.00 | 66 | 1006.7 |
| 20260503223547 | 50 | 248 | 0.0 | 0.0 | 0.00 | 9.99 | 0.00 | 65 | 1006.6 |
| 20260503223049 | 50 | 248 | 0.0 | 0.0 | 0.00 | 9.99 | 0.00 | 65 | 1006.4 |
| 20260503222547 | 50 | 248 | 0.0 | 0.0 | 0.00 | 9.99 | 0.00 | 65 | 1006.5 |
| 20260503221047 | 51 | 248 | 0.0 | 0.0 | 0.00 | 9.99 | 0.00 | 62 | 1006.3 |
| 20260503220547 | 51 | 248 | 0.0 | 0.0 | 0.00 | 9.99 | 0.00 | 62 | 1006.2 |
| 20260503220047 | 51 | 248 | 0.0 | 0.0 | 0.00 | 9.99 | 0.00 | 62 | 1006.1 |
| 20260503215547 | 51 | 248 | 0.0 | 0.0 | 0.00 | 9.99 | 0.00 | 62 | 1006.2 |
| 20260503215047 | 51 | 248 | 0.0 | 0.0 | 0.00 | 9.99 | 0.00 | 62 | 1006.1 |
| 20260503214550 | 52 | 248 | 0.0 | 0.0 | 0.00 | 9.99 | 0.00 | 62 | 1006.0 |
| 20260503214547 | 52 | 248 | 0.0 | 0.0 | 0.00 | 9.99 | 0.00 | 62 | 1006.0 |
| 20260503214047 | 52 | 248 | 0.0 | 0.0 | 0.00 | 9.99 | 0.00 | 62 | 1006.1 |
| 20260503213547 | 52 | 248 | 0.0 | 0.0 | 0.00 | 9.99 | 0.00 | 62 | 1006.1 |
| 20260503213047 | 52 | 248 | 0.0 | 0.0 | 0.00 | 9.99 | 0.00 | 61 | 1005.9 |
| 20260503212547 | 52 | 248 | 0.0 | 0.0 | 0.00 | 9.99 | 0.00 | 61 | 1005.8 |
| 20260503212047 | 53 | 248 | 0.0 | 0.0 | 0.00 | 9.99 | 0.00 | 61 | 1005.8 |
| 20260503211047 | 53 | 248 | 0.0 | 0.0 | 0.00 | 9.99 | 0.00 | 61 | 1005.7 |
| 20260503210047 | 53 | 248 | 0.0 | 0.0 | 0.00 | 9.99 | 0.00 | 60 | 1005.8 |
| 20260503205547 | 53 | 248 | 0.0 | 0.0 | 5.20 | 9.99 | 0.00 | 59 | 1005.6 |
| 20260503205051 | 54 | 248 | 0.0 | 0.0 | 9.99 | 9.99 | 0.00 | 59 | 1005.6 |
| 20260503204619 | 54 | 248 | 0.0 | 0.0 | 9.99 | 9.99 | 0.00 | 59 | 1005.7 |
| 20260503204547 | 54 | 248 | 0.0 | 0.0 | 9.99 | 9.99 | 0.00 | 59 | 1005.7 |
| 20260503204051 | 54 | 248 | 0.0 | 0.0 | 9.99 | 9.99 | 0.00 | 59 | 1005.7 |
| 20260503203547 | 55 | 248 | 0.0 | 0.0 | 9.99 | 9.99 | 0.00 | 59 | 1005.8 |
| 20260503203050 | 55 | 248 | 0.0 | 0.0 | 9.99 | 9.99 | 0.00 | 59 | 1005.9 |
| 20260503202047 | 56 | 248 | 0.0 | 0.0 | 0.32 | 9.99 | 0.00 | 58 | 1005.8 |
| 20260503200547 | 56 | 248 | 0.0 | 0.0 | 9.99 | 9.99 | 0.00 | 56 | 1005.8 |
| 20260503195047 | 57 | 359 | 0.0 | 0.0 | 9.99 | 9.99 | 0.00 | 56 | 1004.1 |
| 20260503194547 | 57 | 359 | 0.0 | 0.0 | 9.99 | 9.99 | 0.00 | 56 | 1004.1 |
| 20260503193549 | 57 | 359 | 0.0 | 0.0 | 9.99 | 9.99 | 0.00 | 55 | 1004.1 |
| 20260503193049 | 58 | 359 | 0.0 | 0.0 | 9.99 | 9.99 | 0.00 | 55 | 1004.2 |
| 20260503192551 | 58 | 359 | 0.0 | 0.0 | 0.32 | 9.99 | 0.00 | 55 | 1004.2 |
| 20260503190548 | 60 | 248 | 0.0 | 0.0 | 9.99 | 5.85 | 0.00 | 52 | 1004.5 |
| 20260503190050 | 60 | 359 | 0.0 | 0.0 | 9.99 | 9.99 | 0.00 | 51 | 1004.2 |
| 20260503190048 | 60 | 359 | 0.0 | 0.0 | 9.99 | 9.99 | 0.00 | 51 | 1004.2 |
| 20260503185550 | 60 | 359 | 0.0 | 0.0 | 9.99 | 9.99 | 0.00 | 51 | 1004.1 |
| 20260503184548 | 61 | 359 | 0.0 | 0.0 | 9.99 | 9.99 | 0.00 | 49 | 1003.9 |
| 20260503184051 | 62 | 248 | 0.0 | 0.0 | 9.99 | 9.99 | 0.00 | 47 | 1003.8 |
| 20260503182554 | 64 | 248 | 0.0 | 0.0 | 9.99 | 9.99 | 0.00 | 46 | 1004.7 |
| 20260503182048 | 64 | 248 | 0.0 | 0.0 | 9.99 | 5.85 | 0.00 | 46 | 1004.7 |
| 20260503181549 | 64 | 338 | 0.0 | 0.0 | 0.32 | 5.85 | 0.00 | 45 | 1004.6 |
| 20260503180631 | 65 | 248 | 0.0 | 0.0 | 5.52 | 5.85 | 0.00 | 45 | 1004.7 |
| 20260503180548 | 65 | 248 | 0.0 | 0.0 | 5.52 | 5.85 | 0.00 | 45 | 1004.7 |
| 20260503180049 | 66 | 248 | 0.0 | 0.0 | 5.52 | 5.85 | 0.00 | 44 | 1004.8 |
| 20260503175552 | 67 | 359 | 0.0 | 0.0 | 5.52 | 5.97 | 0.00 | 44 | 1004.7 |
| 20260503175048 | 68 | 359 | 0.0 | 0.0 | 0.32 | 5.97 | 0.00 | 42 | 1003.4 |
| 20260503174053 | 70 | 359 | 0.0 | 0.0 | 9.99 | 5.97 | 0.00 | 41 | 1004.0 |
| 20260503173549 | 70 | 359 | 0.0 | 0.0 | 9.99 | 5.97 | 0.00 | 38 | 1003.8 |
| 20260503173055 | 70 | 248 | 0.0 | 0.0 | 9.99 | 5.97 | 0.00 | 38 | 1004.9 |
| 20260503172551 | 71 | 248 | 0.0 | 0.0 | 9.99 | 5.97 | 0.00 | 38 | 1005.0 |
| 20260503172049 | 71 | 248 | 0.0 | 0.0 | 9.99 | 5.97 | 0.00 | 38 | 1004.7 |
| 20260503170548 | 72 | 248 | 0.0 | 0.0 | 0.00 | 0.77 | 0.00 | 36 | 1005.0 |